Location: Marcé
(47.5801°N, 0.3280°W)
Time: 11:06:29
(UTC+01:00)

deb Explorer IX - Pass Details

Date: 02 December 2021
Orbit: 544 x 1082 km, 38.8° (Epoch: 17 January)

Event Time Altitude Azimuth Distance (km) Brightness Sun altitude
Rises 11:57:39 0° 221° (SW) 2,916 ? 19.4°
Reaches altitude 10° 12:00:49 10° 200° (SSW) 1,926 ? 19.5°
Maximum altitude 12:03:29 16° 162° (SSE) 1,526 ? 19.6°
Drops below altitude 10° 12:06:03 10° 123° (ESE) 1,833 ? 19.7°
Sets 12:08:57 0° 101° (ESE) 2,702 ? 19.8°
